"Pseudo-MPEC" for P11dbFG

Created 2021 Feb 28 16:07:04 UT using Find_Orb

Click here for an explanation of pseudo-MPECs

 
 Astrometry: 
     P11dbFG  C2021 02 12LHyJ;,YGisOW=JiXK=]b18v:M;E_8S,?!`iplAstrometry=\PG9F51
     P11dbFG  C2021 02 12mK\vyc9dUredacted;iY(_Xgw1Nf4_\bTl!/_Lk?#k)p/^_hAx.vF51
     P11dbFG  C2021 02 1216lw$RZ_nh!`i1yo?LGHBW`\y'Zjclick0e#=_UQD#?ycbdbWg[*F51
     P11dbFG  C2021 02 12h]yDbSKwS;here-rv055?@forYB_2_GwY]c`explanationAC`?,F51

Station data:
(F51) Pan-STARRS 1, Haleakala  (N20.707235 W156.255910)  US/Hawaii.
   Observers N. Primak, A. Schultz, S. Watters, J. Thiel, T. Goggia. Measurer
   PS1 Science Consortium. 1.8-m Ritchey-Chrétien + CCD.

Orbital elements:  P11dbFG
   Perihelion 2021 Oct 23.914349 +/- 98.617 TT = 21:56:39 (JD 2459511.414349)
Epoch 2021 Feb 12.0 TT = JDT 2459257.5   Earth MOID: 0.2914   Ma: 0.0397
M 221.60713485 +/- 129.24899        (J2000 ecliptic)          AutoNEOCP
n   0.54503759 +/- 0.479518         Peri.  307.03997 +/- 87.381493
a   1.48428880 +/- 0.870558         Node   320.34234 +/- 80.868261
e   0.1659754 +/- 0.2681            Incl.   36.96801 +/- 25.017768
P   1.81/660.49d           H 20.2   G  0.15   U 12.2  SR
q 1.23793334 +/- 0.66909    Q 1.73064426 +/- 22.8085
From 4 observations 2021 Feb. 12 (55.2 min); mean residual 0".04
Residuals in arcseconds: 
210212 F51  .01-  .07+    210212 F51  .00   .03-    
210212 F51  .02+  .09-    210212 F51  .01-  .05+    

Ephemerides (geocentric):
Date (UTC) HH   RA              Dec         delta   r     elong  mag " sig PA
---- -- -- --  -------------   -----------  ------ ------ -----  --- ---- ---
2021 02 28 16  06 24 19.334   +38 38 10.16  0.9904 1.6613 114.0 22.7 857'  66
2021 02 28 17  06 24 19.560   +38 36 44.99  0.9907 1.6612 113.9 22.7 863'  66
2021 02 28 18  06 24 19.793   +38 35 19.87  0.9910 1.6612 113.9 22.7 870'  65
2021 02 28 19  06 24 20.031   +38 33 54.78  0.9913 1.6611 113.9 22.7 876'  64
2021 02 28 20  06 24 20.276   +38 32 29.74  0.9916 1.6610 113.8 22.7 883'  63
2021 02 28 21  06 24 20.527   +38 31 04.73  0.9920 1.6610 113.8 22.7 890'  62
2021 02 28 22  06 24 20.784   +38 29 39.77  0.9923 1.6609 113.8 22.7 897'  62
2021 02 28 23  06 24 21.047   +38 28 14.85  0.9926 1.6609 113.7 22.7 904'  61
2021 03 01 00  06 24 21.316   +38 26 49.97  0.9929 1.6608 113.7 22.7 911'  60
2021 03 01 01  06 24 21.592   +38 25 25.13  0.9932 1.6607 113.7 22.7 917'  59
2021 03 01 02  06 24 21.874   +38 24 00.34  0.9935 1.6607 113.6 22.7 924'  59
2021 03 01 03  06 24 22.162   +38 22 35.58  0.9939 1.6606 113.6 22.7 931'  58
2021 03 01 04  06 24 22.456   +38 21 10.87  0.9942 1.6606 113.6 22.7 937'  57
2021 03 01 05  06 24 22.756   +38 19 46.20  0.9945 1.6605 113.5 22.7 943'  57
2021 03 01 06  06 24 23.063   +38 18 21.57  0.9948 1.6604 113.5 22.7 949'  56
2021 03 01 07  06 24 23.375   +38 16 56.98  0.9951 1.6604 113.5 22.7 955'  55
2021 03 01 08  06 24 23.694   +38 15 32.43  0.9954 1.6603 113.4 22.7 961'  55
2021 03 01 09  06 24 24.018   +38 14 07.93  0.9958 1.6602 113.4 22.7 966'  54
2021 03 01 10  06 24 24.349   +38 12 43.47  0.9961 1.6602 113.3 22.7 971'  54
2021 03 01 11  06 24 24.686   +38 11 19.04  0.9964 1.6601 113.3 22.7 976'  54
2021 03 01 12  06 24 25.029   +38 09 54.66  0.9967 1.6601 113.3 22.7 981'  53
2021 03 01 13  06 24 25.378   +38 08 30.33  0.9970 1.6600 113.2 22.7 985'  53
2021 03 01 14  06 24 25.733   +38 07 06.03  0.9974 1.6599 113.2 22.7 990'  52
2021 03 01 15  06 24 26.094   +38 05 41.77  0.9977 1.6599 113.2 22.7 994'  52
2021 03 01 16  06 24 26.461   +38 04 17.56  0.9980 1.6598 113.1 22.7 998'  52
2021 03 01 17  06 24 26.835   +38 02 53.39  0.9983 1.6598 113.1 22.7  17d  51
2021 03 01 18  06 24 27.214   +38 01 29.26  0.9986 1.6597 113.1 22.7  17d  51
2021 03 01 19  06 24 27.599   +38 00 05.17  0.9990 1.6596 113.0 22.7  17d  51
2021 03 01 20  06 24 27.990   +37 58 41.13  0.9993 1.6596 113.0 22.7  17d  50
2021 03 01 21  06 24 28.387   +37 57 17.12  0.9996 1.6595 113.0 22.7  17d  50
2021 03 01 22  06 24 28.790   +37 55 53.16  0.9999 1.6595 112.9 22.7  17d  50
2021 03 01 23  06 24 29.199   +37 54 29.24  1.0003 1.6594 112.9 22.7  17d  50
2021 03 02 00  06 24 29.614   +37 53 05.36  1.0006 1.6593 112.9 22.7  17d  50
2021 03 02 01  06 24 30.035   +37 51 41.52  1.0009 1.6593 112.8 22.7  17d  49
2021 03 02 02  06 24 30.462   +37 50 17.73  1.0012 1.6592 112.8 22.7  17d  49
2021 03 02 03  06 24 30.895   +37 48 53.98  1.0015 1.6591 112.7 22.7  17d  49
2021 03 02 04  06 24 31.334   +37 47 30.27  1.0019 1.6591 112.7 22.7  17d  49
2021 03 02 05  06 24 31.778   +37 46 06.60  1.0022 1.6590 112.7 22.7  17d  49
2021 03 02 06  06 24 32.229   +37 44 42.97  1.0025 1.6590 112.6 22.7  17d  48
2021 03 02 07  06 24 32.685   +37 43 19.39  1.0028 1.6589 112.6 22.7  17d  48
2021 03 02 08  06 24 33.147   +37 41 55.84  1.0032 1.6588 112.6 22.7  17d  48
2021 03 02 09  06 24 33.615   +37 40 32.34  1.0035 1.6588 112.5 22.7  17d  48
2021 03 02 10  06 24 34.089   +37 39 08.88  1.0038 1.6587 112.5 22.7  17d  48
2021 03 02 11  06 24 34.569   +37 37 45.47  1.0041 1.6587 112.5 22.7  17d  48
2021 03 02 12  06 24 35.055   +37 36 22.09  1.0045 1.6586 112.4 22.7  17d  48
2021 03 02 13  06 24 35.546   +37 34 58.76  1.0048 1.6585 112.4 22.7  17d  48
2021 03 02 14  06 24 36.044   +37 33 35.47  1.0051 1.6585 112.4 22.7  18d  47
2021 03 02 15  06 24 36.547   +37 32 12.22  1.0054 1.6584 112.3 22.7  18d  47